Home   Weather   Loures   Past weeks
Flag for Portugal

Past Weather in Loures, Portugal — Yesterday and Last 2 Weeks

Now
64 °F

Overcast.


Feels Like: 64 °F
Forecast: 80 / 62 °F
Wind: 12 mph from Northwest

Location: Lisbon Portela Airport

Current Time: Jul 17, 2019 at 1:36:45 am

Latest Report: Jul 17, 2019 at 1:00 am


Visibility: N/A

Pressure: 30.01 "Hg

Humidity: 88%

Dew Point: 61 °F

Location of LouresLocation

Past Weather in Loures — Graph

°F

Loures Temperature Yesterday

Maximum temperature yesterday: 73 °F (at 3:00 pm)
Minimum temperature yesterday: 64 °F (at 1:30 am)
Average temperature yesterday: 67 °F

High & Low Weather Summary for the Past Weeks

 TemperatureHumidityPressure
High100 °F (Jul 11, 4:00 pm)100% (Jul 4, 3:30 am)30.09 "Hg (Jul 4, 3:30 am)
Low59 °F (Jul 3, 6:00 am)17% (Jul 11, 3:30 pm)29.86 "Hg (Jul 11, 4:00 pm)
Average70 °F74%29.98 "Hg
* Reported Jul 2 12:00 am — Jul 17 12:30 am, Loures. Weather by CustomWeather, © 2019

Note: Actual official high and low records may vary slightly from our data, if they occured in-between our weather recording intervals... More about our weather records

Advertising

Loures Weather History for the Previous 24 Hours

Scroll right to see more
 ConditionsComfort  
Time TempWeatherWind HumidityBarometerVisibility
12:30 am
Wed, Jul 17
64 °FOvercast.16 mph88%30.01 "HgN/A
12:00 am64 °FOvercast.13 mph88%30.01 "HgN/A
11:30 pm
Tue, Jul 16
64 °FOvercast.15 mph88%30.01 "HgN/A
11:00 pm64 °FOvercast.14 mph88%30.01 "HgN/A
10:30 pm64 °FOvercast.13 mph88%30.01 "HgN/A
10:00 pm64 °FOvercast.8 mph88%30.01 "HgN/A
9:30 pm64 °FOvercast.14 mph88%29.98 "HgN/A
9:00 pm66 °FOvercast.17 mph83%29.98 "HgN/A
8:30 pm66 °FPartly sunny.14 mph83%29.98 "HgN/A
8:00 pm66 °FPartly sunny.13 mph83%29.98 "HgN/A
7:30 pm68 °FPartly sunny.9 mph78%29.98 "HgN/A
7:00 pm68 °FPartly sunny.14 mph78%29.98 "HgN/A
6:30 pm68 °FPartly sunny.17 mph78%29.98 "HgN/A
6:00 pm68 °FPartly sunny.15 mph78%29.98 "HgN/A
5:30 pm70 °FPartly sunny.15 mph73%29.98 "HgN/A
5:00 pm70 °FPartly sunny.14 mph73%29.98 "HgN/A
4:30 pm72 °FScattered clouds.14 mph69%29.98 "HgN/A
4:00 pm72 °FScattered clouds.10 mph73%29.98 "HgN/A
3:30 pm72 °FScattered clouds.13 mph69%29.98 "HgN/A
3:00 pm73 °FPassing clouds.12 mph65%29.98 "HgN/A
2:30 pm72 °FPassing clouds.10 mph69%29.98 "HgN/A
2:00 pm72 °FPartly sunny.12 mph69%29.98 "HgN/A
1:30 pm72 °FPartly sunny.12 mph69%29.98 "HgN/A
1:00 pm70 °FPartly sunny.12 mph78%30.01 "HgN/A
12:30 pm68 °FPartly sunny.13 mph83%30.01 "HgN/A
12:00 pm66 °FPartly sunny.13 mph88%30.01 "HgN/A
11:30 am66 °FPartly sunny.12 mph88%30.01 "HgN/A
11:00 am66 °FPartly sunny.9 mph88%30.01 "HgN/A
10:30 am66 °FPartly sunny.9 mph88%29.98 "HgN/A
10:00 am64 °FPartly sunny.13 mph88%30.01 "HgN/A
9:30 am64 °FPartly sunny.10 mph88%30.01 "HgN/A
9:00 am64 °FPartly sunny.13 mph88%29.98 "HgN/A
8:30 am64 °FPartly sunny.14 mph88%29.98 "HgN/A
8:00 am64 °FPartly sunny.10 mph88%29.98 "HgN/A
7:30 am64 °FBroken clouds.13 mph88%29.98 "HgN/A
7:00 am64 °FPartly sunny.15 mph88%29.98 "HgN/A
6:30 am64 °FBroken clouds.14 mph88%29.98 "HgN/A
6:00 am64 °FPassing clouds.15 mph88%29.95 "HgN/A
5:30 am64 °FPassing clouds.14 mph83%29.95 "HgN/A
5:00 am64 °FPassing clouds.13 mph83%29.95 "HgN/A
4:30 am64 °FPassing clouds.9 mph83%29.95 "HgN/A
4:00 am64 °FPassing clouds.12 mph83%29.98 "HgN/A
3:30 am64 °FPassing clouds.13 mph83%29.98 "HgN/A
3:00 am64 °FPassing clouds.7 mph83%29.98 "HgN/A
2:30 am64 °FPassing clouds.7 mph83%29.98 "HgN/A
2:00 am64 °FPassing clouds.12 mph83%29.98 "HgN/A
1:30 am64 °FPassing clouds.15 mph88%30.01 "HgN/A
1:00 am66 °FPassing clouds.15 mph78%30.01 "HgN/A
Weather by CustomWeather, © 2019

See weather overview

LIVE PARTIAL LUNAR ECLIPSE – Watch the eclipse as it happens